Tracking 27124 objects as of 31-Mar-2023
HD Live streaming from Space Station
objects crossing your sky now

COSMOS 970 DEB

Track COSMOS 970 DEB now!
10-day predictions


NORAD ID: 12869
Int'l Code: 1977-121AX
Perigee: 929.3 km
Apogee: 1,051.1 km
Inclination: 65.8 °
Period: 104.8 minutes
Semi major axis: 7361 km
RCS: 0.0101 m2 (small)
Launch date: December 21, 1977
Source: Commonwealth of Independent States (former USSR) (CIS)
Launch site: TYURATAM MISSILE AND SPACE COMPLEX (TTMTR)

Note: This is SATELLITE DEBRIS
Your satellite tracking list
Your tracking list is empty




NASA's NSSDC Master Catalog

Two Line Element Set (TLE):
1 12869U 77121AX  23089.08007102  .00001164  00000-0  12785-2 0  9991
2 12869  65.7916 325.7799 0082732 160.1529 348.9620 13.74620824257306
Source of the keplerian elements: AFSPC